RH
30 32 32 33 35 36 35 33 34 33 33 34 37 40 45 45 40 37 39 36 28 24 21 20 18 16 15 15 17 18 18 19 21 20 18 18 20 26 31 47 53 54 58
32 31 32 33 35 36 36 36 37 37 38 39 40 43 48 47 42 39 42 35 29 25 22 20 18 15 15 17 19 19 20 22 25 24 25 20 24 42 43 37 49 57 60
28 29 32 32 34 37 38 39 41 42 42 42 43 48 50 47 43 42 43 35 29 25 23 20 16 14 14 17 19 21 23 22 22 28 33 32 31 39 38 37 45 55 56
27 28 31 33 35 38 40 44 46 47 46 45 49 53 52 49 46 45 42 34 29 26 22 18 16 16 16 18 22 23 24 24 24 29 32 35 41 47 44 36 43 52 57
25 27 30 32 36 41 43 47 51 51 49 50 55 56 53 51 49 46 41 33 29 25 20 18 17 17 17 19 21 23 25 26 26 27 28 32 37 42 50 44 38 51 54
26 27 30 35 40 44 46 50 53 52 53 57 58 58 56 54 51 46 39 32 27 22 20 18 18 18 20 22 22 23 26 26 27 28 30 32 40 43 49 46 39 54 55
25 29 32 38 43 46 48 52 54 54 59 61 61 60 59 57 50 45 35 29 24 21 19 18 19 21 21 22 22 24 24 25 29 32 30 32 37 44 48 48 40 43 57
26 29 34 41 45 47 50 54 56 60 62 63 62 64 62 56 50 40 31 26 22 20 20 20 20 19 20 22 23 23 24 26 30 33 30 33 35 43 49 50 44 41 54
28 34 39 44 48 50 53 58 62 64 63 63 66 66 63 56 45 33 28 23 21 21 21 20 19 21 22 23 25 27 29 31 33 36 35 33 36 44 49 52 49 50 61
33 37 42 46 49 51 58 62 64 65 65 68 69 67 60 50 36 30 25 23 22 21 21 20 21 22 25 30 34 38 40 43 42 42 40 37 40 45 51 53 51 56 67
38 43 46 50 52 55 58 60 62 64 69 71 68 62 53 39 33 26 24 23 22 22 21 21 23 29 34 40 46 50 52 56 56 51 45 37 41 46 52 54 52 58 70
44 47 50 52 53 57 60 61 64 69 72 69 64 55 41 35 29 26 24 24 24 22 24 27 31 36 42 48 54 57 62 65 64 57 49 40 42 47 52 55 55 59 72
47 51 54 52 52 57 61 65 68 71 70 66 58 44 37 31 28 26 26 25 24 25 29 32 35 41 49 54 57 60 65 68 68 63 54 46 46 49 54 57 56 58 73
51 54 53 53 54 61 65 67 70 69 65 60 46 40 34 30 28 28 27 25 26 28 31 34 38 48 54 59 62 60 63 67 69 66 57 50 48 51 56 59 59 57 71
54 51 49 52 59 64 66 70 70 66 61 48 43 37 32 30 29 28 27 26 28 30 33 36 42 52 59 64 66 66 62 62 65 64 58 52 50 53 57 61 61 58 70
49 46 51 57 64 66 69 71 70 65 51 45 40 36 34 31 30 28 27 28 29 32 36 38 44 56 65 68 74 71 68 65 62 60 57 53 51 55 60 63 62 58 61
45 49 56 62 65 69 72 74 69 56 49 43 39 36 33 32 29 28 28 29 30 32 38 41 47 57 66 73 78 79 73 68 65 62 58 55 54 58 60 62 62 58 54
48 55 61 64 67 70 77 74 62 54 48 43 39 36 34 31 29 29 29 29 30 34 40 44 50 58 65 74 79 82 81 75 70 64 60 57 57 60 62 62 62 59 55
55 62 67 69 70 78 77 66 58 53 48 44 40 37 34 31 30 29 29 29 31 35 43 50 52 57 65 73 81 85 84 82 78 72 64 62 62 63 64 62 62 59 57
62 67 68 71 78 78 70 60 57 51 47 44 40 37 34 31 30 30 29 30 33 36 44 51 55 56 63 72 80 86 86 86 85 81 73 68 64 64 64 64 63 61 59
68 71 74 78 79 73 63 58 53 50 47 43 40 37 33 31 31 30 30 31 33 37 42 48 59 61 66 73 79 88 87 88 88 86 81 75 70 66 63 63 64 64 61
73 77 79 80 76 66 59 57 53 50 46 43 41 37 33 32 32 30 30 31 33 37 42 49 61 69 70 76 81 87 93 91 92 90 87 80 75 70 65 62 61 64 64
76 82 82 79 70 62 60 58 53 50 47 44 40 36 33 33 32 31 31 31 34 39 43 50 59 70 75 80 84 92 94 94 95 95 91 87 83 76 69 66 64 64 63
83 83 79 73 67 65 60 55 53 51 46 44 40 36 34 34 33 33 33 33 37 42 47 53 59 66 76 79 87 94 97 97 95 94 93 91 86 81 74 69 67 65 64
88 85 78 71 71 63 58 56 54 49 47 43 40 37 36 35 34 34 34 37 42 46 50 57 62 65 72 78 88 95 96 97 97 96 94 92 88 83 77 70 67 65 65
87 78 75 74 65 60 58 56 52 49 46 43 40 38 37 36 35 33 36 42 45 49 55 62 67 70 78 82 90 95 96 97 98 97 96 92 88 84 81 74 68 65 65